Change the Weather History Date:

Wednesday, August 28, 2013

  Actual Average Record
Temperature  
Mean Temperature 82 °F -  
Max Temperature 93 °F 87 °F 93 °F (2007)
Min Temperature 72 °F 68 °F 59 °F (2004)
Cooling Degree Days 17    
Growing Degree Days 32 (Base 50)    
Moisture  
Dew Point 70 °F    
Average Humidity 68    
Maximum Humidity 93    
Minimum Humidity 49    
Precipitation  
Precipitation 0.02 in - - ()
Sea Level Pressure  
Sea Level Pressure 29.95 in    
Wind  
Wind Speed 10 mph (WNW)    
Max Wind Speed 18 mph    
Max Gust Speed 21 mph    
Visibility 10 miles    
Events Rain    
Averages and records for this station are not official NWS values.
T = Trace of Precipitation, MM = Missing Value Source: NWS Daily Summary

Daily Weather History Graph

Daily Weather History Graph

Search for Another Location

Airport or City:

Trip Planner

Search our weather history database for the weather conditions in past years. The results will help you decide how hot, cold, wet, or windy it might be!

Date:

Astronomy

Aug. 28, 2013 Rise Set
Actual Time 6:19 AM CDT 7:33 PM CDT
Civil Twilight 5:51 AM CDT 8:01 PM CDT
Nautical Twilight 5:17 AM CDT 8:35 PM CDT
Astronomical Twilight 4:41 AM CDT 9:10 PM CDT
Moon No Moon Rise 2:11 PM CDT (8/28)
Length of Visible Light 14h 10m
Length of Day
13h 14m
Waning Gibbous, 47% of the Moon is Illuminated
Aug 28
Waning Gibbous
Sep 5
New
Sep 12
First Quarter
Sep 19
Full
Sep 26
Last Quarter

Hourly Weather History & Observations

Time (CDT) Temp. Heat Index Dew Point Humidity Pressure Visibility Wind Dir Wind Speed Gust Speed Precip Events Conditions
12:56 AM 75.9 °F - 68.0 °F 76% 29.97 in 10.0 mi WSW 10.4 mph - N/A   Clear
1:56 AM 77.0 °F - 65.8 °F 68% 29.91 in 10.0 mi WSW 10.4 mph - N/A   Clear
2:56 AM 77.0 °F - 63.9 °F 64% 29.90 in 10.0 mi WSW 12.7 mph - N/A   Clear
3:56 AM 75.9 °F - 63.9 °F 66% 29.91 in 10.0 mi WSW 12.7 mph - N/A   Clear
4:56 AM 73.9 °F - 63.9 °F 71% 29.92 in 10.0 mi WSW 11.5 mph - N/A   Clear
5:56 AM 72.0 °F - 63.9 °F 76% 29.94 in 10.0 mi WSW 10.4 mph - N/A   Clear
6:56 AM 72.0 °F - 64.9 °F 78% 29.95 in 10.0 mi WSW 11.5 mph - N/A   Clear
7:56 AM 75.9 °F - 64.9 °F 69% 29.96 in 10.0 mi West 18.4 mph - N/A   Clear
8:56 AM 79.0 °F - 65.8 °F 64% 29.95 in 10.0 mi West 15.0 mph 20.7 mph N/A   Clear
9:56 AM 82.9 °F 85.8 °F 68.0 °F 60% 29.95 in 10.0 mi West 11.5 mph - N/A   Clear
10:56 AM 86.0 °F 89.7 °F 68.9 °F 56% 29.94 in 10.0 mi West 11.5 mph - N/A   Clear
11:56 AM 88.9 °F 93.8 °F 70.0 °F 53% 29.95 in 10.0 mi West 10.4 mph - N/A   Clear
12:56 PM 91.4 °F 96.8 °F 69.8 °F 49% 29.99 in 10.0 mi West 8.1 mph - N/A   Clear
1:56 PM 91.9 °F 99.5 °F 72.0 °F 52% 29.93 in 10.0 mi WNW 5.8 mph - N/A   Clear
2:56 PM 91.9 °F 100.1 °F 72.9 °F 53% 29.92 in 10.0 mi NNW 4.6 mph - N/A   Mostly Cloudy
3:56 PM 92.8 °F 102.8 °F 73.9 °F 54% 29.92 in 10.0 mi NW 10.4 mph - N/A   Mostly Cloudy
4:56 PM 92.8 °F 102.8 °F 73.9 °F 54% 29.93 in 10.0 mi NW 6.9 mph - N/A   Mostly Cloudy
5:56 PM 90.9 °F 102.4 °F 75.9 °F 61% 29.93 in 10.0 mi North 9.2 mph - N/A   Mostly Cloudy
6:56 PM 90.0 °F 101.3 °F 75.9 °F 63% 29.94 in 10.0 mi North 6.9 mph - N/A   Mostly Cloudy
7:56 PM 81.9 °F 90.5 °F 77.9 °F 88% 29.96 in 5.0 mi NE 9.2 mph - 0.00 in Rain Light Rain
8:56 PM 79.0 °F - 75.9 °F 90% 29.99 in 7.0 mi ENE 5.8 mph - 0.02 in   Scattered Clouds
9:56 PM 75.9 °F - 72.9 °F 90% 29.99 in 10.0 mi ENE 9.2 mph - N/A   Clear
10:56 PM 73.9 °F - 72.0 °F 93% 30.00 in 10.0 mi ENE 6.9 mph - N/A   Partly Cloudy
11:56 PM 72.9 °F - 70.9 °F 93% 29.99 in 10.0 mi ENE 8.1 mph - N/A   Scattered Clouds